Location: *
(58.7167°N, 26.1833°E)
Time: 22:37:33
(UTC+00:00)

Cosmos 2333 Rocket - Pass Details

Date: 25 August 2019
Orbit: 841 x 860 km, 70.8° (Epoch: 17 September)

Event Time Altitude Azimuth Distance (km) Brightness Sun altitude
Rises 19:10:59 0° 310° (NW) 3,410 7.6 -11.1°
Reaches altitude 10° 19:13:43 10° 321° (NW) 2,474 6.2 -11.4°
Maximum altitude 19:18:44 31° 23° (NNE) 1,443 3.6 -11.8°
Drops below altitude 10° 19:23:46 10° 86° (E) 2,475 4.3 -12.3°
Enters shadow 19:24:55 - 91° (E) 2,855 4.5 -12.4°
